Location: Grand Lay
(47.3253°N, 0.9468°E)
Time: 20:25:29
(UTC+00:00)

Gbstr 26 Del rocket - Pass Details

Date: 11 April 2026
Orbit: 490 x 1216 km, 51.8° (Epoch: 13 May)

Event Time Altitude Azimuth Distance (km) Brightness Sun altitude
Exits shadow 03:51:28 14° 290° (WNW) 1,444 4.6 -14.1°
Maximum altitude 03:54:23 41° 358° (N) 724 3.6 -13.7°
Drops below altitude 10° 03:58:00 10° 70° (ENE) 1,721 6.8 -13.2°
Sets 04:00:20 0° 78° (ENE) 2,659 7.9 -12.8°
